This is the latest recevied weather packets stored in our database for station/object OE6JUE. If no packets are shown the sender has not sent any weather packets the latest 10 day(s).
| Time | Temp. | Humidity | Pressure | Rain* | Wind** | Luminosity | Snow |
|---|---|---|---|---|---|---|---|
| 1788537236 | 33.33° C | 24% | 1017.1 hPa | 0 mm | - | - | - |
| 1788536935 | 33.89° C | 24% | 1017.1 hPa | 0 mm | - | - | - |
| 1788536636 | 33.89° C | 23% | 1016.9 hPa | 0 mm | - | - | - |
| 1788536336 | 34.44° C | 23% | 1017 hPa | 0 mm | - | - | - |
| 1788536036 | 34.44° C | 23% | 1017.1 hPa | 0 mm | - | - | - |
| 1788535735 | 34.44° C | 23% | 1017.1 hPa | 0 mm | - | - | - |
| 1788535436 | 34.44° C | 26% | 1017.1 hPa | 0 mm | - | - | - |
| 1788535136 | 34.44° C | 26% | 1017.1 hPa | 0 mm | - | - | - |
| 1788534835 | 33.89° C | 24% | 1017.3 hPa | 0 mm | - | - | - |
| 1788534536 | 33.89° C | 24% | 1017.2 hPa | 0 mm | - | - | - |
| 1788534236 | 33.89° C | 25% | 1017.4 hPa | 0 mm | - | - | - |
| 1788533936 | 33.33° C | 25% | 1017.4 hPa | 0 mm | - | - | - |
| 1788533635 | 33.89° C | 25% | 1017.5 hPa | 0 mm | - | - | - |
| 1788533336 | 33.89° C | 26% | 1017.5 hPa | 0 mm | - | - | - |
| 1788533036 | 33.89° C | 27% | 1017.6 hPa | 0 mm | - | - | - |
| 1788532735 | 33.89° C | 26% | 1017.6 hPa | 0 mm | - | - | - |
| 1788532436 | 33.89° C | 25% | 1017.8 hPa | 0 mm | - | - | - |
| 1788532135 | 33.33° C | 26% | 1017.8 hPa | 0 mm | - | - | - |
| 1788531835 | 33.33° C | 26% | 1017.9 hPa | 0 mm | - | - | - |
| 1788531536 | 33.89° C | 28% | 1017.9 hPa | 0 mm | - | - | - |
| 1788531236 | 33.33° C | 26% | 1017.9 hPa | 0 mm | - | - | - |
| 1788530936 | 33.89° C | 26% | 1018.1 hPa | 0 mm | - | - | - |
| 1788530645 | 33.33° C | 26% | 1018.2 hPa | 0 mm | - | - | - |
| 1788530335 | 33.33° C | 27% | 1018.3 hPa | 0 mm | - | - | - |
| 1788530035 | 33.33° C | 26% | 1018.4 hPa | 0 mm | - | - | - |
* Rain latest hour (hover to see other rain measurements)
** Current wind speed in m/s (hover to see current wind gust speed)